Location: Kellogg
(38.0159°N, 90.0546°W)
Time: 15:22:01
(UTC+00:00)

Vanguard 1 Rocket - Pass Details

Date: 17 September 2024
Orbit: 650 x 4218 km, 34.3° (Epoch: 07 October)

Event Time Altitude Azimuth Distance (km) Brightness Sun altitude
Rises 12:35:01 0° 275° (W) 6,467 11.1 9.2°
Reaches altitude 10° 12:38:35 10° 274° (W) 5,820 10.9 9.9°
Maximum altitude 12:59:10 76° 193° (SSW) 4,135 10.9 13.9°
Drops below altitude 10° 13:25:15 10° 114° (ESE) 7,065 14.0 18.9°
Sets 13:30:11 0° 112° (ESE) 7,826 13.7 19.9°
